Flag for U.S.A. Weather past 2 weeks in Little Rock, Arkansas, U.S.A.

Now
56 °F

Passing clouds.


Feels Like: 52 °F
Forecast: 44 / 63 °F
Wind: 14 mph from Southwest

Location: Adams Field

Current Time: Jan 29, 2015 at 7:00:42 AM

Latest Report: Jan 29, 2015 at 5:53 AM


Visibility: 10 mi

Pressure: 30.03 "Hg

Humidity: 60%

Dew point: 42 °F

Location of Little RockLocation

Historic Weather in Little Rock — Graph

°F

Little Rock temperature yesterday

Maximum temperature yesterday: 63 °F (at 2:53 PM)
Minimum temperature yesterday: 36 °F (at 6:53 AM)
Average temperature yesterday: 50 °F

Past Weeks' High & Low Weather Summary

 TemperatureHumidityPressure
High68 °F (Jan 18, 2:53 PM)89% (Jan 28, 5:53 AM)30.47 "Hg (Jan 28, 5:53 AM)
Low22 °F (Jan 14, 5:53 AM)12% (Jan 18, 2:53 PM)29.74 "Hg (Jan 25, 11:53 AM)
Average47 °F55%30.13 "Hg
* Reported Jan 14 5:53 AM — Jan 29 5:53 AM, Little Rock, Weather by CustomWeather, © 2014

Note: Actual official high and low records may vary slightly from our data, if they occured in-between our weather recording intervals... More about our weather records

Advertising

Little Rock weather history for previous 24 hours

 ConditionsComfort  
Time TempWeatherWind HumidityBarometerVisibility
5:53 AM
Jan 29
56 °FPassing clouds.14 mph60%30.03 "Hg10 mi
4:53 AM56 °FPassing clouds.14 mph58%30.01 "Hg10 mi
3:53 AM57 °FPassing clouds.15 mph55%30.01 "Hg10 mi
2:53 AM58 °FPassing clouds.18 mph51%30.02 "Hg10 mi
1:53 AM59 °FPassing clouds.18 mph49%30.02 "Hg10 mi
12:53 AM59 °FPassing clouds.17 mph49%30.02 "Hg10 mi
11:53 PM
Jan 28
58 °FPassing clouds.16 mph51%30.02 "Hg10 mi
10:53 PM56 °FPassing clouds.7 mph55%30.03 "Hg10 mi
9:53 PM52 °FPassing clouds.6 mph64%30.03 "Hg10 mi
8:53 PM54 °FPassing clouds.9 mph62%30.04 "Hg10 mi
7:53 PM55 °FPassing clouds.8 mph57%30.06 "Hg10 mi
6:53 PM55 °FPartly cloudy.8 mph55%30.07 "Hg10 mi
5:53 PM58 °FPartly cloudy.12 mph50%30.05 "Hg10 mi
4:53 PM61 °FPartly sunny.12 mph44%30.06 "Hg10 mi
3:53 PM63 °FPartly sunny.10 mph40%30.09 "Hg10 mi
2:53 PM63 °FPartly sunny.12 mph38%30.11 "Hg10 mi
1:53 PM62 °FScattered clouds.9 mph38%30.14 "Hg10 mi
12:53 PM60 °FScattered clouds.10 mph38%30.17 "Hg10 mi
11:53 AM57 °FPassing clouds.9 mph42%30.23 "Hg10 mi
10:53 AM53 °FPassing clouds.12 mph51%30.26 "Hg10 mi
9:53 AM49 °FPassing clouds.8 mph59%30.28 "Hg10 mi
8:53 AM43 °FPassing clouds.9 mph74%30.27 "Hg7 mi
7:53 AM37 °FPassing clouds.3 mph86%30.27 "Hg10 mi
Weather by CustomWeather, © 2014

See weather overviewHow to use our weather pages